Regional Weather Roundup
Issued by NWS

Home | Current Version | Previous Version | Text Only | Print | Product List | Glossary On
Versions: 1 2 3 4 5 6 7 8 9 10 11 12 13 14 15 16 17 18 19 20 21 22 23 24 25 26 27 28 29 30 31 32 33 34 35 36 37 38 39 40 41 42 43 44 45 46 47 48 49 50
000
ASUS44 KFWD 221703
RWRTX
NORTH TEXAS HOURLY WEATHER ROUNDUP
NATIONAL WEATHER SERVICE FORT WORTH TX
1100 AM CST MON DEC 22 2014

NOTE: "FAIR" INDICATES FEW OR NO CLOUDS BELOW 12,000 FEET WITH NO
SIGNIFICANT WEATHER AND/OR OBSTRUCTIONS TO VISIBILITY.

TXZ118-119-221800-
DALLAS/FORT WORTH METROPLEX

CITY           SKY/WX    TMP DP  RH WIND       PRES   REMARKS
DFW AIRPORT    MOSUNNY   61  44  53 SW13      29.60S
DALLAS LOVE    MOSUNNY   62  46  55 W16       29.60S
FTW MEACHAM    SUNNY     61  43  51 W12       29.60R
DAL-EXECUTIVE  SUNNY     64  46  52 W15G23    29.60S
FTW-ALLIANCE   MOSUNNY   60  42  51 W13       29.61R
FTW-SPINKS     SUNNY     61  43  51 W10G18    29.62F
ARLINGTON      SUNNY     64  42  44 SW9       29.60F
GRAND PRAIRIE  SUNNY     63  45  51 SW13G18   29.62S
MESQUITE       SUNNY     63  52  67 SW17G23   29.62
LANCASTER      SUNNY     62  47  58 SW16G24   29.62S
$$

TXZ091>094-102>105-117-120-121-131>134-221800-
NORTH CENTRAL TEXAS

CITY           SKY/WX    TMP DP  RH WIND       PRES   REMARKS
SHRMAN/DENISON MOSUNNY   59  50  72 SW10G16   29.61R
BRIDGEPORT     SUNNY     55  45  69 NW12      29.65S
DENTON         SUNNY     59  44  57 W12       29.61R
MCKINNEY       SUNNY     61  48  62 SW15      29.60S
ROCKWALL       SUNNY     61  52  71 SW14G23   29.59F
TERRELL        MOSUNNY   65  52  62 SW18G28   29.61F
WAXAHACHIE     SUNNY     63  49  62 SW13G18   29.62F
CLEBURNE       SUNNY     63  43  48 W15       29.63
$$

TXZ083>090-098>101-113>116-127>130-139>142-154-155-221800-
WESTERN NORTH TEXAS

CITY           SKY/WX    TMP DP  RH WIND       PRES   REMARKS
WICHITA FALLS  MOSUNNY   52  44  74 N13       29.64F
WF-KICKAPOO    MOSUNNY   52  43  71 N12G21    29.66F
VERNON         MOSUNNY   57  36  45 N22G29    29.67S
ABILENE        MOSUNNY   60  35  39 NW17      29.72R
BRECKENRIDGE   SUNNY     59  37  43 NW16G25   29.69R HAZE
MINERAL WELLS  SUNNY     57  39  51 W15       29.63R
STEPHENVILLE   SUNNY     63  38  39 W16G24    29.67R
COLEMAN        MOSUNNY   64  41  42 W15G21    29.72R
BRADY          SUNNY     64  43  45 W13       29.70S
$$

TXZ143>147-156>162-174-175-221800-
CENTRAL TEXAS

CITY           SKY/WX    TMP DP  RH WIND       PRES   REMARKS
WACO           MOSUNNY   64  49  57 SW14G20   29.65F
WACO-TSTC      SUNNY     64  52  63 SW14G22   29.65F
WACO-MCGREGOR  MOSUNNY   66  52  59 SW17G23   29.66F
CORSICANA      MOSUNNY   65  52  62 SW18G31   29.64F
MEXIA          MOSUNNY   63  54  72 SW21      29.65F
HEARNE         PTSUNNY   65  55  68 S15       29.70F
TEMPLE         MOSUNNY   63  48  59 SW15G21   29.67S
KILLEEN        NOT AVBL
KILLEEN-SKYLRK MOSUNNY   64  48  55 SW13G23   29.66F
HAMILTON       SUNNY     65  44  44 W20G26    29.66F
LAMPASAS       MOSUNNY   63  49  61 SW8       29.67F
$$

TXZ095>097-106>112-122>126-135>138-148>153-164>167-221800-
EAST TEXAS

CITY           SKY/WX    TMP DP  RH WIND       PRES   REMARKS
PARIS          CLOUDY    61  52  72 SW17      29.59F
SULPHUR SPRNGS CLOUDY    62  52  68 SW18G28   29.63S
MINEOLA        PTSUNNY   64  55  72 SW14      29.63F
TYLER          PTSUNNY   65  54  67 SW16G26   29.62F
LONGVIEW       CLOUDY    62  56  80 S10       29.64F
MARSHALL       CLOUDY    60  57  90 S8        29.68F
PALESTINE      PTSUNNY   65  56  72 S17       29.67S
JACKSONVILLE   CLOUDY    63  56  77 SW9G22    29.67F
HENDERSON      CLOUDY    62  57  86 S10G17    29.66F
NACOGDOCHES    CLOUDY    63  57  82 S13G20    29.68F
LUFKIN         CLOUDY    66  59  78 S13       29.69F
$$

SUPPLEMENTAL OBSERVATIONS (CENTRAL)

CITY           SKY/WX    TMP DP  RH WIND       PRES   REMARKS
$$

SUPPLEMENTAL OBSERVATIONS (WEST)

CITY           SKY/WX    TMP DP  RH WIND       PRES   REMARKS
$$

SUPPLEMENTAL OBSERVATIONS (EAST)

CITY           SKY/WX    TMP DP  RH WIND       PRES   REMARKS
$$

SUPPLEMENTAL OBSERVATIONS ARE A COLLECTION OF AUTOMATED INSTRUMENTS
THAT ARE MAINTAINED BY A VARIETY OF FEDERAL AND STATE AGENCIES.
CERTAIN ELEMENTS...SUCH AS HUMIDITY VALUES AND SUSTAINED WIND
SPEEDS...MAY BE APPROXIMATED.




USA.gov is the U.S. government's official web portal to all federal, state and local government web resources and services.